GW3649 Weather Reports


time (UTC)temp
C
wind
direction
speed
KPH
gust
KPH
rain 1hr
cm
rain 24hr
cm
rain mn
cm
humidity
%
barometer
mb
20260504151006 22 135 1.6 4.8 0.00 0.00 0.00 61 1019.1
20260504150508 22 135 0.0 3.2 0.00 0.00 0.00 64 1019.1
20260504141007 18 135 0.0 1.6 0.00 0.00 0.00 74 1019.1
20260504140508 18 135 0.0 3.2 0.00 0.00 0.00 74 1019.1
20260504130504 14 135 0.0 1.6 0.00 0.00 0.00 88 1018.9
20260504110504 8 135 0.0 0.0 0.00 0.00 0.00 97 1018.3
20260504100505 8 135 0.0 0.0 0.00 0.00 0.00 97 1018.1
20260504082002 8 135 0.0 0.0 0.00 0.00 0.00 96 1018.5
20260504081503 9 135 0.0 0.0 0.00 0.00 0.00 96 1018.4
20260504081002 9 135 0.0 0.0 0.00 0.00 0.00 96 1018.5
20260504080506 10 135 0.0 0.0 0.00 0.00 0.00 97 1018.6
20260504050505 11 135 0.0 0.0 0.00 0.00 0.00 95 1019.8
20260504050018 11 135 0.0 0.0 0.00 0.00 0.00 95 1019.8
20260504045504 11 135 0.0 0.0 0.00 0.00 0.00 94 1019.7
20260504045006 11 135 0.0 0.0 0.00 0.00 0.00 94 1019.7
20260504044525 11 135 0.0 0.0 0.00 0.00 0.00 94 1019.7
20260504044006 11 135 0.0 0.0 0.00 0.00 0.00 94 1019.7
20260504043507 11 135 0.0 0.0 0.00 0.00 0.00 94 1019.7
20260504043026 11 135 0.0 0.0 0.00 0.00 0.00 94 1019.8
20260504042503 11 135 0.0 0.0 0.00 0.00 0.00 94 1019.9
20260504042004 11 135 0.0 0.0 0.00 0.00 0.00 93 1019.9
20260504041509 11 135 0.0 0.0 0.00 0.00 0.00 93 1020.0
20260504041004 11 135 0.0 0.0 0.00 0.00 0.00 93 1019.9
20260504040504 12 135 0.0 0.0 0.00 0.00 0.00 93 1019.9
20260504040014 12 135 0.0 0.0 0.00 0.00 0.00 93 1020.0
20260504035505 12 135 0.0 0.0 0.00 0.00 0.00 93 1020.0
20260504035005 12 135 0.0 0.0 0.00 0.00 0.00 92 1020.0
20260504034529 12 135 0.0 0.0 0.00 0.00 0.00 92 1020.0
20260504034005 12 135 0.0 0.0 0.00 0.00 0.00 92 1020.0
20260504033506 12 135 0.0 0.0 0.00 0.00 0.00 92 1020.0
20260504033035 12 135 0.0 1.6 0.00 0.00 0.00 92 1020.0
20260504032509 12 135 0.0 1.6 0.00 0.00 0.00 91 1020.0
20260504032011 12 135 0.0 0.0 0.00 0.00 0.00 91 1020.1
20260504031530 12 135 0.0 1.6 0.00 0.00 0.00 91 1020.0
20260504031010 12 135 0.0 1.6 0.00 0.00 0.00 90 1020.1
20260504030503 12 135 0.0 0.0 0.00 0.00 0.00 90 1020.0
20260504030010 12 135 0.0 1.6 0.00 0.00 0.00 89 1020.0
20260504025503 12 135 0.0 1.6 0.00 0.00 0.00 89 1020.0
20260504025003 13 135 0.0 1.6 0.00 0.00 0.00 89 1020.0
20260504024535 13 135 0.0 0.0 0.00 0.00 0.00 89 1019.9
20260504024007 13 135 0.0 0.0 0.00 0.00 0.00 88 1019.8
20260504023505 13 135 0.0 1.6 0.00 0.00 0.00 88 1019.7
20260504023018 13 135 0.0 1.6 0.00 0.00 0.00 88 1019.7
20260504022506 13 135 0.0 1.6 0.00 0.00 0.00 88 1019.6
20260504022014 13 135 0.0 0.0 0.00 0.00 0.00 86 1019.6
20260504021525 13 135 0.0 0.0 0.00 0.00 0.00 86 1019.5
20260504021006 13 135 0.0 0.0 0.00 0.00 0.00 85 1019.5
20260504020509 13 135 0.0 0.0 0.00 0.00 0.00 85 1019.5
20260504020026 14 135 0.0 0.0 0.00 0.00 0.00 85 1019.4
20260504015510 14 135 0.0 0.0 0.00 0.00 0.00 84 1019.4
20260504015003 14 135 0.0 0.0 0.00 0.00 0.00 83 1019.4
20260504014512 15 135 0.0 0.0 0.00 0.00 0.00 82 1019.3
20260504014007 15 135 0.0 0.0 0.00 0.00 0.00 81 1019.2
20260504013506 15 135 0.0 0.0 0.00 0.00 0.00 81 1019.2
20260504013018 15 135 0.0 0.0 0.00 0.00 0.00 80 1019.1
20260504012507 15 135 0.0 0.0 0.00 0.00 0.00 79 1019.0
20260504012007 15 135 0.0 0.0 0.00 0.00 0.00 75 1019.0
20260504011519 16 135 0.0 0.0 0.00 0.00 0.00 76 1019.1
20260504011008 16 135 0.0 0.0 0.00 0.00 0.00 78 1019.2
20260504010510 16 135 0.0 0.0 0.00 0.00 0.00 77 1019.1
20260504010028 16 135 0.0 0.0 0.00 0.00 0.00 77 1019.1
20260504005509 17 135 0.0 0.0 0.00 0.00 0.00 76 1019.0
20260504005011 17 135 0.0 0.0 0.00 0.00 0.00 75 1018.9
20260504004539 17 135 0.0 1.6 0.00 0.00 0.00 73 1018.8
20260504004009 17 135 0.0 1.6 0.00 0.00 0.00 70 1018.8
20260504003510 18 135 0.0 0.0 0.00 0.00 0.00 72 1018.8
20260504003016 18 135 0.0 0.0 0.00 0.00 0.00 68 1018.9
20260504002506 18 135 0.0 1.6 0.00 0.00 0.00 66 1018.8
20260504002006 19 135 0.0 1.6 0.00 0.00 0.00 68 1018.8
20260504001519 19 135 0.0 0.0 0.00 0.00 0.00 64 1018.8
20260504001007 20 135 0.0 0.0 0.00 0.00 0.00 64 1018.8
20260504000507 20 135 0.0 0.0 0.00 0.00 0.00 64 1018.8
20260504000024 20 135 0.0 0.0 0.00 0.00 0.00 59 1018.7
20260503235506 21 135 0.0 0.0 0.00 0.00 0.00 54 1018.7
20260503235010 21 135 0.0 0.0 0.00 0.00 0.00 51 1018.6
20260503234528 22 135 0.0 0.0 0.00 0.00 0.00 46 1018.7
20260503234012 22 135 0.0 0.0 0.00 0.00 0.00 50 1018.8
20260503233509 22 135 0.0 0.0 0.00 0.00 0.00 49 1018.8
20260503233030 23 135 0.0 3.2 0.00 0.00 0.00 41 1018.9
20260503232511 23 135 0.0 3.2 0.00 0.00 0.00 43 1019.0
20260503232010 23 135 0.0 1.6 0.00 0.00 0.00 45 1019.0
20260503231516 23 135 0.0 1.6 0.00 0.00 0.00 45 1018.9
20260503231012 22 135 0.0 1.6 0.00 0.00 0.00 46 1019.0
20260503230507 22 135 0.0 1.6 0.00 0.00 0.00 46 1019.1
20260503230022 22 135 0.0 4.8 0.00 0.00 0.00 43 1019.1
20260503225506 22 135 1.6 4.8 0.00 0.00 0.00 44 1019.0
20260503225012 22 135 0.0 1.6 0.00 0.00 0.00 47 1019.1
20260503224504 22 135 0.0 0.0 0.00 0.00 0.00 42 1019.2
20260503224005 22 135 0.0 1.6 0.00 0.00 0.00 42 1019.1
20260503223503 22 135 0.0 1.6 0.00 0.00 0.00 43 1019.1
20260503223005 22 135 0.0 4.8 0.00 0.00 0.00 42 1019.1
20260503222502 22 135 1.6 4.8 0.00 0.00 0.00 42 1019.0
20260503222002 22 135 0.0 3.2 0.00 0.00 0.00 39 1019.1
20260503221506 23 135 0.0 3.2 0.00 0.00 0.00 43 1019.1
20260503221001 23 135 0.0 3.2 0.00 0.00 0.00 46 1019.2
20260503220502 23 135 0.0 3.2 0.00 0.00 0.00 43 1019.2
20260503220003 23 135 0.0 1.6 0.00 0.00 0.00 41 1019.3
20260503215503 23 135 0.0 3.2 0.00 0.00 0.00 42 1019.3
20260503215002 23 135 0.0 4.8 0.00 0.00 0.00 39 1019.3
20260503214503 23 135 0.0 6.4 0.00 0.00 0.00 40 1019.4
20260503214003 23 135 1.6 8.0 0.00 0.00 0.00 41 1019.4
20260503213503 23 135 1.6 8.0 0.00 0.00 0.00 41 1019.4
20260503213007 23 135 3.2 8.0 0.00 0.00 0.00 38 1019.5
20260503212503 23 135 1.6 8.0 0.00 0.00 0.00 39 1019.5
20260503212004 23 135 0.0 9.7 0.00 0.00 0.00 40 1019.7
20260503211507 23 135 1.6 9.7 0.00 0.00 0.00 41 1019.8
20260503211003 23 135 0.0 4.8 0.00 0.00 0.00 44 1019.8
20260503210503 23 135 0.0 6.4 0.00 0.00 0.00 43 1019.8
20260503210007 23 135 0.0 8.0 0.00 0.00 0.00 40 1019.9
20260503205502 23 135 1.6 8.0 0.00 0.00 0.00 44 1020.0
20260503205003 23 135 0.0 6.4 0.00 0.00 0.00 46 1020.1
20260503204505 23 135 0.0 6.4 0.00 0.00 0.00 44 1020.1
20260503204002 23 135 0.0 11.3 0.00 0.00 0.00 43 1020.2
20260503203503 23 135 3.2 11.3 0.00 0.00 0.00 44 1020.4
20260503203006 23 135 0.0 4.8 0.00 0.00 0.00 44 1020.4
20260503202503 23 135 0.0 3.2 0.00 0.00 0.00 43 1020.5
20260503202004 23 135 1.6 4.8 0.00 0.00 0.00 44 1020.5
20260503201510 23 135 1.6 6.4 0.00 0.00 0.00 42 1020.5
20260503201004 23 135 3.2 6.4 0.00 0.00 0.00 43 1020.6
20260503200504 23 135 0.0 8.0 0.00 0.00 0.00 46 1020.7
20260503200010 23 135 1.6 8.0 0.00 0.00 0.00 42 1020.7
20260503195507 23 135 1.6 8.0 0.00 0.00 0.00 41 1020.8
20260503195005 23 135 0.0 8.0 0.00 0.00 0.00 43 1020.9
20260503194512 23 135 1.6 6.4 0.00 0.00 0.00 43 1021.0
20260503194004 23 135 3.2 6.4 0.00 0.00 0.00 40 1021.1
20260503193507 23 135 1.6 6.4 0.00 0.00 0.00 40 1021.1
20260503193009 23 135 0.0 6.4 0.00 0.00 0.00 45 1021.2
20260503192503 23 135 1.6 6.4 0.00 0.00 0.00 45 1021.3
20260503192003 23 135 1.6 6.4 0.00 0.00 0.00 45 1021.4
20260503191506 23 135 1.6 8.0 0.00 0.00 0.00 40 1021.6
20260503191006 23 135 1.6 8.0 0.00 0.00 0.00 40 1021.6
20260503190503 23 135 3.2 8.0 0.00 0.00 0.00 41 1021.7
20260503190023 23 135 0.0 6.4 0.00 0.00 0.00 44 1021.8
20260503185505 22 135 3.2 14.5 0.00 0.00 0.00 43 1021.9
20260503185002 22 135 6.4 14.5 0.00 0.00 0.00 39 1022.0
20260503184514 23 135 3.2 9.7 0.00 0.00 0.00 44 1022.0
20260503184004 23 135 1.6 8.0 0.00 0.00 0.00 41 1022.0
20260503183503 22 135 3.2 9.7 0.00 0.00 0.00 44 1022.1
20260503183012 22 135 1.6 9.7 0.00 0.00 0.00 44 1022.0
20260503182504 22 135 3.2 8.0 0.00 0.00 0.00 46 1022.1
20260503182006 23 135 1.6 6.4 0.00 0.00 0.00 43 1022.1
20260503181506 23 135 0.0 4.8 0.00 0.00 0.00 44 1022.3
20260503181003 22 135 1.6 9.7 0.00 0.00 0.00 44 1022.4
20260503180503 22 135 1.6 9.7 0.00 0.00 0.00 42 1022.4
20260503180009 22 135 3.2 9.7 0.00 0.00 0.00 41 1022.5
20260503175504 22 135 3.2 6.4 0.00 0.00 0.00 43 1022.5
20260503175003 22 135 0.0 6.4 0.00 0.00 0.00 44 1022.6
20260503174514 22 135 0.0 6.4 0.00 0.00 0.00 52 1022.7
20260503174004 22 135 0.0 8.0 0.00 0.00 0.00 47 1022.8
20260503173506 22 135 3.2 12.9 0.00 0.00 0.00 46 1023.0
20260503173019 22 135 1.6 12.9 0.00 0.00 0.00 46 1023.0
20260503172504 23 135 4.8 6.4 0.00 0.00 0.00 44 1023.0
20260503172003 23 135 0.0 4.8 0.00 0.00 0.00 46 1023.1
20260503171511 22 135 1.6 4.8 0.00 0.00 0.00 47 1023.2
20260503171003 22 135 0.0 9.7 0.00 0.00 0.00 52 1023.4
20260503170503 22 135 0.0 9.7 0.00 0.00 0.00 46 1023.3